www.pogodaiklimat.ru

Погода и климат >> Архив погоды >> Бельгия >> Шаффен


ПОГОДА в Шаффене

  • Прогноз погоды в Шаффене
  • Монитор погоды в Шаффене

АРХИВ ПОГОДЫ в Шаффене

Время (UTC), дата Ветер
(напр.,м/с)
 
Видим.   Явления Облачность Т
(С)
Тd
(С)
f
(%)
Тe
(С)
Тes
(С)
Комфортность P
(гПа)
Po
(гПа)
Тmin
(С)
Tmax
(С)
R
(мм)
R24
(мм)
S
(см)
16 10.09 СЗ 2
{4}
20 км н/о +20.2 +5.5 38 +22 +22 комфорт 1019.0 1012.7
17 10.09 СЗ 2
{4}
20 км н/о +18.8 +6.4 44 +20 +20 1019.2 1013.1
18 10.09 нст 1
{6}
20 км н/о +17.5 +6.7 49 +19 +19 1019.7 1013.5 +21.3
19 10.09 СЗ 2
{3}
20 км н/о +16.0 +7.8 58 +16 +16 1020.3 1014.2
20 10.09
{3}
20 км н/о +15.6 +8.0 61 1021.1 1014.7
21 10.09 нст 1
{3}
20 км н/о +14.8 +8.6 66 +15 +15 1021.2 1015.0
22 10.09
{2}
20 км н/о +14.3 +9.2 71 1021.2 1015.0
23 10.09 З 2
{2}
20 км н/о +13.6 +9.3 75 +13 +13 1021.2 1014.8
00 11.09 нст 1
{3}
20 км н/о +13.5 +9.7 78 +14 +14 1021.6 1015.2
01 11.09
{3}
20 км н/о +12.3 +9.6 84 1021.6 1015.2
02 11.09
{1}
19 км н/о +12.3 +9.9 85 1021.5 1015.2
03 11.09 нст 1
{3}
15 км 9/5 1500 м
[Sc Ac trans Ci fib]
+11.0 +9.9 93 +11 +11 1021.7 1015.3
04 11.09
{2}
15 км 9/5 1500 м
[Sc Ac trans Ci fib]
+10.8 +9.8 94 1021.5 1015.2
05 11.09 Ю 2
{2}
15 км 9/5 1500 м
[Sc Ac trans Ci fib]
+10.8 +9.7 93 +9 +9 1021.7 1015.2
06 11.09 нст 1
{3}
15 км 8/4 1500 м
[Sc Ac trans Ci fib]
+11.5 +9.7 89 +11 +11 1021.8 1015.6 +10.6
07 11.09
{2}
15 км 8/4 1500 м
[Sc Ac trans Ci fib]
+12.1 +10.0 87 1022.2 1015.8
08 11.09 Ю 2
{4}
15 км слаб. дождь 9/6 480 м
[Sc Ac trans]
+14.1 +10.6 79 +14 +14 1022.3 1016.1
09 11.09 ЮЗ 3
{5}
10 км слаб. дождь 9/9 480 м
[Sc]
+14.9 +12.7 87 +14 +15 1022.8 1016.7
10 11.09 ЮЗ 3
{6}
10 км слаб. дождь 9/9 270 м
[Sc]
+15.3 +12.8 85 +15 +15 1022.8 1016.6
11 11.09 ЮЗ 3
{7}
15 км слаб. дождь 9/9 1350 м
[Sc]
+15.6 +12.2 80 +15 +16 1022.7 1016.3
12 11.09 Ю 4
{8}
15 км в посл. час дождь 9/9 1350 м
[Sc]
+16.2 +12.1 77 +15 +16 1022.6 1016.3 0.9
13 11.09 ЮЗ 4
{9}
20 км слаб. дождь н/о +17.1 +11.9 71 +17 +17 1022.5 1016.2
14 11.09 ЮЗ 6
{10}
20 км {дождь} н/о +17.6 +11.5 67 +17 +17 1022.2 1016.1
15 11.09 ЮЗ 4
{10}
7000 м слаб. дождь н/о +17.0 +12.3 74 +17 +17 1022.3 1016.2
16 11.09 ЮЗ 4
{8}
20 км {дождь, морось} н/о +18.5 +10.5 60 +19 +19 1022.6 1016.3
17 11.09 ЮЗ 3
{8}
20 км н/о +18.2 +10.7 62 +19 +19 1022.6 1016.3
18 11.09 ЮЗ 3
{10}
20 км {дождь, морось} н/о +17.5 +11.1 66 +18 +18 1022.6 1016.3 +18.5 1
19 11.09 ЮЗ 5
{10}
20 км н/о +17.7 +13.2 75 +17 +17 1023.2 1017.1
20 11.09 ЮЗ 3
{9}
20 км {дождь, морось} н/о +16.5 +14.7 89 +16 +16 1023.7 1017.6
21 11.09 ЮЗ 2
{10}
20 км {дождь, морось} н/о +16.7 +15.1 90 +17 +17 1024.0 1017.7
22 11.09 ЮЗ 2
{5}
9000 м н/о +16.7 +15.4 92 +17 +17 1024.2 1018.1
23 11.09 ЮЗ 2
{5}
4600 м морось {дождь} н/о +16.5 +15.9 96 +17 +17 1024.7 1018.3
00 12.09 нст 1
{10}
3800 м слаб. дождь {морось} н/о +16.4 +16.0 97 +17 +17 1025.0 1018.7 0.4
01 12.09
{3}
11 км {дождь} н/о +16.5 +15.9 96 1025.2 1019.0
02 12.09
{4}
9000 м н/о +16.5 +15.9 96 1025.4 1019.2
03 12.09 нст 2
{4}
13 км {дождь} н/о +16.6 +15.8 95 +17 +17 1025.5 1019.2
04 12.09 ЮЗ 2
{3}
11 км н/о +16.7 +15.9 95 +17 +17 1025.7 1019.6
05 12.09 ЮЗ 2
{4}
13 км н/о +16.8 +15.8 94 +17 +17 1026.2 1020.0
06 12.09 ЮЗ 2
{5}
15 км {дождь, морось} н/о +16.7 +15.7 94 +17 +17 1026.7 1020.5 +16.0 0.5
07 12.09 ЮЗ 2
{5}
19 км н/о +17.2 +15.6 90 +18 +18 1027.2 1020.8
08 12.09 ЮЗ 2
{7}
20 км н/о +18.1 +15.5 85 +19 +19 1027.9 1021.7
09 12.09 ЮЗ 3
{7}
20 км н/о +19.1 +15.0 77 +21 +21 комфорт 1028.5 1022.2
10 12.09 ЮЗ 4
{7}
20 км н/о +20.7 +13.4 63 +23 +23 комфорт 1028.7 1022.6
11 12.09 З 5
{7}
20 км н/о +20.7 +12.7 60 +23 +23 комфорт 1028.7 1022.6
12 12.09 З 4
{8}
20 км н/о +21.3 +13.6 61 +24 +24 комфорт 1029.0 1022.7
13 12.09 З 4
{8}
20 км н/о +22.6 +12.0 51 +25 +25 комфорт 1028.7 1022.7
14 12.09 ЮЗ 4
{9}
20 км н/о +23.4 +11.7 48 +26 +26 жарко 1028.7 1022.7
15 12.09 З 4
{9}
20 км н/о +23.1 +12.0 50 +26 +26 жарко 1028.5 1022.5
16 12.09 З 4
{8}
20 км н/о +22.5 +12.2 52 +25 +25 комфорт 1028.7 1022.6
17 12.09 З 3
{7}
20 км н/о +22.1 +12.7 55 +25 +25 комфорт 1029.0 1023.0
18 12.09 З 2
{9}
20 км н/о +20.7 +13.4 63 +24 +24 комфорт 1029.2 1023.0 +23.8
19 12.09 ЮЗ 2
{4}
20 км н/о +19.7 +14.2 71 +22 +22 комфорт 1029.5 1023.2
20 12.09 ЮЗ 2
{5}
20 км н/о +19.0 +14.7 76 +21 +21 комфорт 1029.5 1023.3
21 12.09 ЮЗ 3
{5}
20 км н/о +19.3 +15.3 78 +21 +21 комфорт 1029.5 1023.3
22 12.09 З 5
{9}
20 км н/о +19.2 +14.6 75 +20 +20 1029.9 1023.7
23 12.09 З 4
{9}
20 км н/о +18.4 +13.7 74 +19 +19 1029.7 1023.6
00 13.09 З 4
{9}
20 км н/о +18.1 +13.9 76 +18 +18 1029.9 1023.6
01 13.09 З 4
{8}
20 км н/о +17.8 +14.0 78 +18 +18 1029.9 1023.7
02 13.09 З 3
{6}
20 км н/о +17.7 +14.2 80 +18 +18 1030.2 1023.8
03 13.09 ЮЗ 2
{8}
20 км н/о +17.2 +14.4 84 +18 +18 1030.2 1024.0
04 13.09
{3}
20 км н/о +17.2 +14.3 83 1030.2 1024.0
05 13.09 З 2
{5}
20 км н/о +17.2 +13.9 81 +18 +18 1030.7 1024.4
06 13.09 ЮЗ 2
{8}
20 км н/о +17.2 +14.3 83 +18 +18 1031.2 1025.0 +17.2
07 13.09 З 3
{5}
10 км слаб. морось {дождь} н/о +16.3 +15.2 93 +16 +16 1031.7 1025.5
08 13.09 З 3
{4}
17 км {дождь, морось} н/о +17.3 +14.9 86 +17 +17 1032.2 1025.9
09 13.09 З 2
{5}
17 км {дождь, морось} н/о +18.2 +15.2 83 +19 +19 1032.7 1026.4
10 13.09 З 2
{4}
15 км н/о +19.1 +15.6 80 +21 +21 комфорт 1033.0 1026.7
11 13.09
{4}
19 км н/о +20.2 +15.8 76 1032.7 1026.5
12 13.09 СЗ 4
{8}
15 км дождь {морось} н/о +18.7 +15.3 81 +20 +20 1033.0 1026.9 0.1
13 13.09 С 3
{8}
20 км {дождь} н/о +20.5 +14.5 68 +23 +23 комфорт 1033.0 1026.7
14 13.09 С 5
{8}
20 км н/о +21.6 +12.9 58 +24 +24 комфорт 1032.9 1026.7
15 13.09 С 4
{8}
20 км {дождь} н/о +21.2 +12.4 57 +23 +23 комфорт 1032.9 1026.7
16 13.09 С 3
{6}
20 км н/о +21.1 +11.7 55 +23 +23 комфорт 1032.7 1026.5
17 13.09 С 2
{6}
20 км н/о +20.0 +12.1 60 +22 +22 комфорт 1033.0 1026.9
18 13.09 С 5
{8}
20 км {дождь} н/о +19.1 +11.3 61 +20 +20 1033.5 1027.2 +22.6 0.4
19 13.09 С 3
{6}
20 км н/о +17.6 +11.4 67 +18 +18 1034.0 1027.9
20 13.09 С 3
{5}
20 км н/о +16.1 +11.6 75 +16 +16 1034.4 1028.0
21 13.09 С 3
{6}
20 км н/о +15.8 +12.1 79 +15 +15 1034.7 1028.4
22 13.09 С 2
{4}
20 км н/о +13.9 +11.5 85 +13 +13 1034.7 1028.2
23 13.09 С 2
{3}
20 км н/о +13.0 +10.9 87 +12 +12 1034.5 1028.2
00 14.09 С 2
{6}
20 км н/о +13.0 +10.9 87 +12 +12 1034.7 1028.5
01 14.09
{4}
20 км н/о +12.6 +9.5 81 1034.4 1028.0
02 14.09
{3}
20 км н/о +12.1 +8.7 80 1034.2 1027.7
03 14.09 С 2
{4}
20 км н/о +11.2 +8.2 82 +10 +10 1034.2 1027.9
04 14.09
{2}
20 км н/о +10.6 +7.8 83 1034.2 1027.9
05 14.09
{2}
20 км н/о +10.3 +7.9 85 1033.9 1027.5
06 14.09 С 2
{4}
19 км н/о +9.6 +7.8 89 +8 +8 1034.0 1027.5 +9.3
07 14.09
{2}
20 км н/о +12.2 +8.6 79 1034.0 1027.7
08 14.09
{3}
20 км н/о +15.1 +9.9 71 1034.2 1027.9
09 14.09 СВ 2
{5}
20 км н/о +17.4 +10.4 63 +18 +18 1034.2 1027.9
10 14.09 В 3
{6}
20 км н/о +19.3 +9.9 54 +20 +20 1033.5 1027.2
11 14.09 В 2
{6}
20 км н/о +20.7 +9.5 49 +23 +23 комфорт 1032.9 1026.7
12 14.09 СВ 2
{6}
20 км н/о +21.1 +8.8 45 +22 +22 комфорт 1032.2 1026.0
13 14.09 СВ 2
{6}
20 км н/о +21.9 +8.4 42 +23 +23 комфорт 1031.5 1025.2
14 14.09 С 4
{5}
20 км н/о +21.9 +8.1 41 +23 +23 комфорт 1030.7 1024.5
15 14.09 СВ 2
{6}
20 км н/о +22.0 +7.1 38 +23 +23 комфорт 1029.9 1023.7
16 14.09 СВ 2
{5}
20 км н/о +21.7 +7.1 39 +23 +23 комфорт 1029.4 1023.2
17 14.09
{4}
20 км н/о +20.6 +6.5 40 1029.2 1023.1
18 14.09 нст 1
{6}
20 км н/о +18.5 +7.4 48 +20 +20 1029.0 1022.8 +22.6
19 14.09
{2}
20 км н/о +17.1 +7.5 53 1029.0 1022.7
20 14.09 С 2
{2}
20 км н/о +15.1 +7.9 62 +15 +15 1029.0 1022.7
21 14.09 нст 1
{2}
20 км н/о +14.1 +6.9 62 +15 +15 1028.7 1022.3
22 14.09
{2}
20 км н/о +13.5 +7.0 65 1027.9 1021.5
23 14.09
{2}
20 км н/о +13.1 +6.6 65 1027.2 1020.8
00 15.09 нст 1
{2}
20 км н/о +11.8 +6.0 68 +12 +12 1027.0 1020.6
01 15.09
{1}
20 км н/о +10.6 +6.5 76 1026.5 1020.1
02 15.09
{2}
20 км н/о +8.3 +6.5 88 1026.2 1019.7
03 15.09 нст 1
{2}
20 км н/о +7.7 +6.5 92 +7 +7 1025.7 1019.2
04 15.09
{3}
20 км н/о +7.8 +6.2 90 1025.5 1019.0
05 15.09
{1}
19 км н/о +7.7 +6.5 92 1025.5 1019.0
06 15.09 нст 1
{3}
9000 м н/о +7.1 +6.3 95 +6 +6 1025.4 1018.8 +6.6
07 15.09
{2}
20 км н/о +10.0 +7.7 86 1025.2 1018.7
08 15.09 Ю 2
{3}
20 км н/о +15.0 +10.3 73 +15 +15 1024.9 1018.7
09 15.09 З 3
{4}
20 км н/о +19.5 +9.3 52 +21 +21 комфорт 1025.2 1019.0
10 15.09 З 3
{6}
20 км н/о +21.1 +9.6 48 +22 +22 комфорт 1025.0 1018.8
11 15.09 З 4
{7}
20 км н/о +21.9 +10.3 48 +24 +24 комфорт 1024.7 1018.6
12 15.09 ЮЗ 2
{7}
20 км н/о +23.7 +9.7 41 +25 +25 комфорт 1024.0 1018.0
13 15.09 З 3
{6}
20 км н/о +23.7 +8.0 37 +24 +24 комфорт 1023.5 1017.3
14 15.09 З 3
{7}
20 км н/о +24.6 +8.4 36 +25 +25 комфорт 1023.0 1016.8
15 15.09 З 4
{8}
20 км н/о +24.4 +7.5 34 +25 +25 комфорт 1022.7 1016.6
16 15.09 СЗ 3
{8}
20 км н/о +24.2 +7.2 34 +24 +24 комфорт 1022.2 1016.1
17 15.09 З 2
{5}
20 км н/о +22.7 +7.5 38 +24 +24 комфорт 1022.2 1016.1
18 15.09 СЗ 2
{8}
20 км н/о +19.7 +7.3 45 +21 +21 комфорт 1022.5 1016.2 +25.0
19 15.09 СЗ 3
{5}
20 км н/о +18.2 +6.3 46 +18 +18 1023.0 1016.7
20 15.09 С 3
{4}
20 км н/о +16.2 +8.8 62 +16 +16 1023.2 1016.8
21 15.09 нст 1
{5}
20 км н/о +15.5 +11.3 76 +16 +16 1023.1 1016.8
22 15.09
{2}
20 км н/о +14.0 +10.9 82 1023.0 1016.7
23 15.09
{3}
20 км н/о +14.0 +11.5 85 1022.6 1016.2
00 16.09 ЮЗ 2
{5}
20 км н/о +14.3 +11.4 83 +14 +14 1022.1 1015.7
01 16.09
{2}
20 км н/о +13.5 +11.3 87 1022.1 1015.7
02 16.09
{2}
19 км н/о +12.5 +11.0 91 1022.2 1015.8
03 16.09 нст 1
{2}
19 км н/о +12.8 +11.3 91 +13 +13 1021.5 1015.1
04 16.09
{2}
20 км 5/0
[Ci fib]
+12.1 +11.2 94 1020.6 1014.2
05 16.09
{2}
20 км 6/0
[Ac trans Ci fib]
+12.5 +11.2 92 1020.8 1014.6
07 16.09
{3}
15 км слаб. дождь 8/5 1200 м
[Sc Ac trans Ci fib]
+13.8 +11.7 87 1020.7 1014.5
08 16.09
{2}
15 км слаб. дождь 10/5 1200 м
[Sc Ac trans]
+15.3 +11.1 76 1020.7 1014.5
09 16.09 нст 2
{3}
15 км слаб. дождь 10/5 1200 м
[Sc Ac trans]
+17.2 +11.1 67 +18 +19 1020.6 1014.3
10 16.09 З 3
{5}
15 км 10/5 1200 м
[Sc Ac trans]
+18.3 +10.5 60 +19 +20 1020.5 1014.2
11 16.09 З 3
{6}
15 км 9/3 1110 м
[Sc Ac trans]
+20.1 +12.0 60 +22 +25 комфорт 1020.2 1014.2
12 16.09 З 3
{6}
15 км {дождь} 9/6 1050 м
[Sc Ac trans]
+19.8 +13.5 67 +22 +24 комфорт 1020.2 1014.1 0.0
13 16.09 СЗ 3
{5}
15 км 9/6 1050 м
[Sc Ac trans]
+20.6 +14.2 67 +24 +25 комфорт 1020.0 1013.8
14 16.09 СЗ 4
{7}
15 км в посл. час дождь 9/6 700 м
[Cu Sc Ac trans]
+18.9 +14.5 76 +20 +21 1020.2 1014.0
15 16.09 С 3
{7}
2000 м морось {дождь} 10/10 90 м
[Sc]
+16.5 +15.8 96 +16 +16 1020.7 1014.5
16 16.09 С 3
{8}
4000 м слаб. морось 10/10 180 м
[Sc]
+15.7 +15.0 96 +15 +15 1020.7 1014.5
17 16.09 С 2
{5}
6000 м в посл. час морось 10/10 180 м
[Sc]
+15.5 +14.7 95 +15 +15 1020.8 1014.7
18 16.09 нст 1
{8}
12 км {дождь, морось} 9/6 240 м
[Sc Ac trans]
+15.0 +13.9 93 +15 +15 1021.1 1014.7 +20.9 0.4
19 16.09 штиль 0
{3}
15 км {дождь, морось} 9/6 660 м
[Sc Ac trans]
+14.4 +13.8 96 +14 +14 1021.2 1015.0
20 16.09
{1}
15 км 9/5 750 м
[Sc Ac trans]
+14.1 +13.6 97 1021.6 1015.3
21 16.09 нст 1
{3}
15 км 9/5 800 м
[Sc Ac trans]
+14.0 +13.6 97 +14 +14 1021.7 1015.3
22 16.09
{2}
12 км слаб. морось 9/9 540 м
[Sc]
+14.3 +13.5 95 1022.0 1015.7
23 16.09
{5}
12 км в посл. час морось 9/9 300 м
[Sc]
+13.8 +13.2 96 1022.1 1015.7
00 17.09 нст 1
{5}
5000 м дымка {дождь} н/о +13.6 +12.9 96 +14 +14 1022.0 1015.7 0.1
01 17.09 СЗ 2
{2}
11 км н/о +13.3 +12.3 94 +12 +12 1021.7 1015.5
02 17.09 З 2
{2}
6000 м н/о +13.2 +12.4 95 +12 +12 1021.6 1015.2
03 17.09 СЗ 2
{4}
10 км н/о +13.1 +11.8 92 +12 +12 1021.6 1015.2
04 17.09 СЗ 2
{4}
9000 м н/о +12.4 +11.5 94 +11 +11 1021.8 1015.6
05 17.09 З 2
{3}
10 км н/о +11.4 +10.3 93 +10 +10 1021.8 1015.5
06 17.09 СЗ 2
{4}
10 км н/о +10.8 +9.8 94 +9 +9 1022.2 1015.8 +10.6 0.1
07 17.09 СЗ 2
{3}
20 км н/о +12.9 +10.0 83 +12 +12 1022.5 1016.2
08 17.09 СЗ 2
{3}
20 км н/о +14.7 +10.0 73 +14 +14 1023.1 1016.7
09 17.09 СЗ 2
{4}
20 км н/о +15.6 +9.3 66 +16 +16 1023.1 1016.8
10 17.09 СЗ 2
{5}
20 км н/о +16.5 +9.1 62 +17 +17 1023.2 1016.8
11 17.09 З 4
{7}
20 км 6/5 1020 м
[Sc Ci fib]
+16.6 +7.7 56 +16 +19 1022.8 1016.7
12 17.09 СЗ 3
{8}
20 км 8/6 1080 м
[Sc Ci fib]
+16.8 +7.9 56 +17 +19 1022.8 1016.7
13 17.09 СЗ 4
{7}
20 км 8/6 1170 м
[Sc Ci fib]
+18.2 +8.1 52 +18 +20 1022.5 1016.2
14 17.09
{10}
20 км н/о +18.4 +8.6 53 +18 +20 1022.6 1016.3

 

Местоположение метеостанции Шаффен (Бельгия): широта 51.00 долгота 5.07 высота над уровнем моря 54 м.

В архиве по умолчанию представлена погода в Шаффене за последнюю неделю. Архивные данные за месяц целиком и за предыдущие месяцы, начиная с января 2011 года, Вы можете получить, выбрав интересующий диапазон дат из раскрывающегося списка и нажав кнопку "Ввод!".


*Определитесь, кто Вы:
робот инопланетянин человек

Внимание! Время в таблицах - всемирное. Для получения местного времени необходимо прибавить поправку, которая равна 1 ч.

Смотрите также архив погоды в соседних городах и на ближайших метеорологических станциях:

Погода в Ретье (Бельгия) (25 км)
Погода в Дипенбеке (Бельгия) (28 км)
Погода в Кляйн-Брогеле (Бельгия) (34 км)
Погода в Бовешене (Бельгия) (35 км)
Погода в Брюсселе (Бельгия) (39 км)
Погода в Эрнаже (Бельгия) (46 км)
Погода в Бьерсете (Бельгия) (47 км)
Погода в Антверпене (Бельгия) (47 км)
Погода в Маастрихте (Нидерланды) (51 км)
Погода в Элле (Нидерланды) (54 км)

Пояснения к столбцам:

Ветер - указаны скорость ветра в м/с - средняя за 10 мин, порывы в срок и между сроками (в фигурных скобках) и направление, откуда дует ветер: С - северный, СВ - северо-восточный, В - восточный, ЮВ - юго-восточный, Ю - южный, ЮЗ - юго-западный, З - западный, СЗ - северо-западный.
Видимость - горизонтальная дальность видимости в метрах или километрах. При видимости от 1 до 10 км при отсутствии осадков обычно наблюдается дымка, при ухудшении видимости до 1 км и менее - туман. В сухую погоду видимость может ухудшаться дымом, пылью или мглою.
Явления - указаны атмосферные явления, наблюдавшиеся в срок или в последний час перед сроком; фигурными скобками обозначены явления, наблюдавшиеся между сроками (за 1-3 часа до срока); квадратными скобками обозначены град или гололедные отложения с указанием их диаметра в мм.
Облачность - указаны через наклонную черту общая и нижняя облачность в баллах и высота нижней границы облаков в метрах; квадратными скобками обозначены формы облаков: Ci - перистые, Cs - перисто-слоистые, Cc - перисто-кучевые, Ac - высококучевые, As - высокослоистые, Sc - слоисто-кучевые, Ns - слоисто-дождевые, Cu - кучевые, Cb - кучево-дождевые. Подробнее классификацию облаков см. в Атласе облаков (PDF).
T - Температура воздуха - температура, измеренная на высоте 2 м над землей.
Td - Температура точки росы - температура, при понижении до которой содержащийся в воздухе водяной пар достигнет насыщения.
f - Относительная влажность воздуха - влажноcть воздуха, измеренная на высоте 2 м над землей.
Te - Эффективная температура - температура, которую ощущает одетый по сезону человек в тени. Характеристика душности погоды. При расчете учитывается влияние влажности воздуха и скорости ветра на теплоощущения человека.
Tes - Эффективная температура на солнце - температура, которую ощущает человек, с поправкой на солнечный нагрев. Характеристика знойности погоды. Зависит от высоты солнца над горизонтом, облачности и скорости ветра. Ночью, в пасмурную погоду, а также при ветре 12 м/с и более поправка равна нулю.
P - Атмосферное давление - приведенное к уровню моря атмосферное давление.
Po - Атмосферное давление - измеренное на уровне метеостанции атмосферное давление.
Tmin - Минимальная температура - минимум температуры воздуха на высоте 2 м над землей.
Tmax - Максимальная температура - максимум температуры воздуха на высоте 2 м над землей.
R - Количество осадков - Количество выпавших осадков за период времени, мм. При наведении курсора мыши на число - период времени, за который выпало указанное количество осадков.
R24 - Количество осадков - Количество выпавших осадков за 24 часа, мм.
S - Снежный покров - Высота снежного покрова, см. При наведении курсора мыши на число - состояние снежного покрова и степень покрытия местности в баллах.